Date,TemperatureHighF,TemperatureAvgF,TemperatureLowF,DewpointHighF,DewpointAvgF,DewpointLowF,HumidityHigh,HumidityAvg,HumidityLow,PressureMaxIn,PressureMinIn,WindSpeedMaxMPH,WindSpeedAvgMPH,GustSpeedMaxMPH,PrecipitationSumIn
2013-3-1,31,31,31,29,29,29,92,92,91,30.09,30.08,4,3,7,0.22
2013-3-2,29,25,17,22,19,12,84,77,67,30.24,30.16,9,6,17,0.00
2013-3-3,32,24,14,19,15,11,90,70,51,30.22,30.12,4,1,8,0.00
2013-3-4,35,31,25,29,26,18,85,80,75,30.14,29.91,12,7,24,0.01
2013-3-5,34,31,28,32,30,27,96,93,82,30.03,29.83,15,7,26,0.01
2013-3-6,32,28,25,27,25,23,94,87,79,30.37,30.03,12,8,21,0.01
2013-3-7,34,30,26,28,25,23,90,83,72,30.45,30.36,6,2,9,0.00
2013-3-8,43,34,25,36,29,23,92,84,73,30.48,30.27,10,4,17,0.00
2013-3-9,51,42,35,43,37,31,88,82,70,30.28,29.81,13,8,25,0.00
2013-3-10,55,49,46,51,46,40,97,90,67,29.82,29.62,12,6,25,0.00
2013-3-11,49,37,31,48,34,27,97,92,84,29.93,29.63,16,11,27,0.00
2013-3-12,39,32,26,33,27,22,94,82,71,30.15,29.92,15,10,27,0.00
2013-3-13,35,28,23,24,20,18,91,73,52,30.40,30.15,14,9,25,0.00
2013-3-14,42,32,24,32,26,20,90,78,62,30.40,30.13,12,4,21,0.00
2013-3-15,55,41,29,46,37,27,94,84,67,30.14,29.67,8,3,14,0.00
2013-3-16,45,37,32,42,34,27,97,88,77,30.11,29.64,10,5,21,0.00
2013-3-17,38,34,30,31,28,25,85,79,72,30.17,29.90,8,5,20,0.00
2013-3-18,41,34,26,36,31,19,96,89,74,29.96,29.69,15,8,26,0.00
2013-3-19,40,29,20,19,17,13,79,61,33,30.19,29.94,18,10,28,0.00
2013-3-20,30,24,18,20,12,7,80,60,43,30.22,30.12,17,11,31,0.00
2013-3-21,34,24,14,16,12,8,83,61,41,30.14,30.04,9,3,19,0.00
2013-3-22,44,32,20,24,18,13,84,58,34,30.11,30.01,6,2,11,0.00
2013-3-23,48,38,32,28,25,22,78,60,43,30.10,29.95,7,3,17,0.00
2013-3-24,33,30,28,29,28,25,97,93,74,29.96,29.59,12,7,22,0.03
2013-3-25,34,30,27,30,28,25,97,92,81,30.15,29.73,12,8,22,0.08
2013-3-26,36,33,31,28,27,26,86,79,67,30.32,30.14,9,6,16,0.01
2013-3-27,40,33,27,29,26,22,87,75,51,30.40,30.32,8,3,14,0.00
2013-3-28,47,37,27,33,28,22,84,70,56,30.41,30.31,5,2,9,0.00
2013-3-29,55,44,36,38,34,30,84,68,46,30.32,30.23,6,2,12,0.00
2013-3-30,55,46,35,45,38,-100,90,75,61,30.24,29.91,13,5,22,0.00
2013-3-31,59,50,45,47,44,41,95,82,53,29.91,29.79,13,8,27,0.00